Regional Weather Roundup
Issued by NWS

Home | Current Version | Previous Version | Graphics & Text | Print | Product List | Glossary On
Versions: 1 2 3 4 5 6 7 8 9 10 11 12 13 14 15 16 17 18 19 20 21 22 23 24 25 26 27 28 29 30 31 32 33 34 35 36 37 38 39 40 41 42 43 44 45 46 47 48 49 50
000
ASUS43 KTOP 070259
RWRKS

WEATHER ROUNDUP FOR KANSAS
NATIONAL WEATHER SERVICE GOODLAND KS
1000 PM CDT MON JUL 06 2015

NOTE:  "FAIR" INDICATES FEW OR NO CLOUDS BELOW 12,000 FEET WITH NO
SIGNIFICANT WEATHER AND/OR OBSTRUCTIONS TO VISIBILITY.

KSZ001>006-013>018-027>032-041>047-070400-
NORTHWEST KANSAS

CITY           SKY/WX    TMP DP  RH WIND       PRES   REMARKS
GOODLAND       CLOUDY    65  54  67 NE7       30.20R HAZE
HAYS           CLOUDY    73  54  49 NE16      30.07S
HILL CITY      CLOUDY    70  54  56 NE10      30.11S HAZE
RUSSELL        CLOUDY    72  62  71 NE18      30.04R
$$

KSZ061>065-074>080-084>089-070400-
SOUTHWEST KANSAS

CITY           SKY/WX    TMP DP  RH WIND       PRES   REMARKS
DODGE CITY     CLOUDY    70  60  70 NE13      30.06R
ELKHART          N/A     69  57  65 N9          N/A
GARDEN CITY    CLOUDY    72  58  61 N18       30.08R
GREAT BEND     CLOUDY    72  63  73 N22G28    30.05R
LIBERAL        CLOUDY    70  61  73 NE8       30.08S
$$

KSZ066>073-081>083-090>101-070400-
SOUTHEAST KANSAS

CITY           SKY/WX    TMP DP  RH WIND       PRES   REMARKS
CHANUTE        TSTM      71  70  96 SE8       29.91S
COFFEYVILLE    TSTM      72  71  97 W10       29.95R FOG
HUTCHINSON     RAIN      71  67  87 N12       29.98R FOG
MEDICINE LODGE   N/A     73  69  87 N13       29.97R
NEWTON         CLOUDY    70  64  83 N15G21    29.98R
PARSONS        TSTM      72  71  97 SE3       29.95R
WICHITA INTL   CLOUDY    74  71  91 N9        29.94R
WICHITA JABRA  CLOUDY    72  72 100 N5        29.95R
WICHITA MCCONL CLOUDY    72  70  94 NE6       29.94R
WINFIELD       TSTM      71  70  96 S5        29.96R
$$

KSZ007>012-019>026-033>040-048>060-102>105-070400-
NORTHEAST KANSAS

CITY           SKY/WX    TMP DP  RH WIND       PRES   REMARKS
CONCORDIA      CLOUDY    71  62  73 N14       30.03R
EMPORIA        LGT RAIN  70  69  97 CALM      29.93R
LAWRENCE       CLOUDY    73  71  93 NW5       29.90S
MANHATTAN      CLOUDY    70  67  90 NE12      29.97R
OLATHE IND     CLOUDY    72  70  93 W5        29.90S
OLATHE EXE     CLOUDY    70  70 100 W6        29.89S
SALINA         CLOUDY    73  66  78 N15G22    30.00R
TOPEKA BILLARD LGT RAIN  72  72 100 N8        29.92R FOG
TOPEKA FORBES  RAIN      73  71  93 W7        29.93R FOG
$$


USA.gov is the U.S. government's official web portal to all federal, state and local government web resources and services.